EHI
0 0 0 0 0 0 0 0 0 0 0 0 0 0 0 0 0 0 1 2 3 2 1 0 0 0 0 0 0 0 0 0 1 1 1 1 1 2 4 4 2 1 1
0 0 0 0 0 0 0 0 0 0 0 0 0 0 0 0 0 0 0 1 2 1 1 1 0 0 0 0 0 0 1 2 2 2 1 0 0 2 5 5 3 1 1
0 0 0 0 0 0 0 0 0 0 0 0 0 0 0 0 0 0 0 0 0 0 1 1 0 0 0 0 1 1 2 3 2 1 0 0 1 2 4 5 3 2 2
0 0 0 0 0 0 0 0 0 0 0 0 0 0 0 0 0 0 0 0 0 0 0 1 1 1 1 1 2 2 3 2 1 0 0 0 1 2 3 3 3 1 1
0 0 0 0 0 0 0 0 0 0 0 0 0 0 0 0 0 0 0 0 0 0 0 0 1 2 2 2 2 2 1 1 0 0 0 0 1 2 1 1 1 1 1
0 0 0 0 0 0 0 0 0 0 0 0 0 0 0 0 0 0 0 0 0 0 0 0 1 1 1 1 1 1 1 1 1 0 0 1 1 1 1 0 1 1 2
0 0 0 0 0 0 0 0 0 0 0 0 0 0 0 0 0 0 0 0 0 0 0 0 0 0 0 0 0 0 1 2 1 0 0 1 2 1 1 1 1 2 3
0 0 0 0 0 0 0 0 0 0 0 0 0 0 0 0 0 0 0 0 0 0 0 0 0 0 0 0 0 0 0 1 1 0 0 2 3 2 0 1 1 2 2
0 0 0 0 0 0 0 0 0 0 0 0 0 0 0 0 0 0 0 0 0 0 0 0 0 0 0 0 0 0 0 0 0 0 0 2 3 1 0 0 1 1 1
0 0 0 0 0 0 0 0 0 0 0 0 0 0 0 0 0 0 0 0 0 0 0 0 0 0 0 0 0 0 0 0 0 0 0 1 1 0 0 0 0 0 0
0 0 0 0 0 0 0 0 0 0 0 0 0 0 0 0 0 0 0 0 0 0 0 0 0 0 0 0 0 0 0 0 0 0 0 0 0 0 0 0 0 0 0
0 0 0 0 0 0 0 0 0 0 0 0 0 0 0 0 0 0 0 0 0 0 0 0 0 0 0 0 0 0 0 0 0 0 0 0 0 0 0 0 0 0 0
0 0 0 0 0 0 0 0 0 0 0 0 0 0 0 0 0 0 0 0 0 0 0 0 0 0 0 0 0 0 0 0 0 0 0 0 0 0 0 0 0 0 0
0 0 0 0 0 0 0 0 0 0 0 0 0 0 0 0 0 0 0 0 0 0 0 0 0 0 0 0 0 0 0 0 0 0 0 0 0 0 0 0 0 0 0
0 0 0 0 0 0 0 0 0 0 0 0 0 0 0 0 0 0 0 0 0 0 0 0 0 0 0 0 0 0 0 0 0 0 0 0 0 0 0 0 0 0 0
0 0 0 0 0 0 0 0 0 0 0 0 0 0 0 0 0 0 0 0 0 0 0 0 0 0 0 0 0 0 0 0 0 0 0 0 0 0 0 0 0 0 0
0 0 0 0 0 0 0 0 0 0 0 0 0 0 0 0 0 0 0 0 0 0 0 0 0 0 0 0 0 0 0 0 0 0 0 0 0 0 0 0 0 0 0
0 0 0 0 0 0 0 0 0 0 0 0 0 0 0 0 0 0 0 0 0 0 0 0 0 0 0 0 0 0 0 0 0 0 0 0 0 0 0 0 0 0 0
0 0 0 0 0 0 0 0 0 0 0 0 0 0 0 0 0 0 0 0 0 0 0 0 0 0 0 0 0 0 0 0 0 0 0 0 0 0 0 0 0 0 0
0 0 0 0 0 0 0 0 0 0 0 0 0 0 0 0 0 0 0 0 0 0 0 0 0 0 0 0 0 0 0 0 0 0 0 0 0 0 0 0 0 0 0
0 0 0 0 0 0 0 0 0 0 0 0 0 0 0 0 0 0 0 0 0 0 0 0 0 0 0 0 0 0 0 0 0 0 0 0 0 0 0 0 0 0 0
0 0 0 0 0 0 0 0 0 0 0 0 0 0 0 0 0 0 0 0 0 0 0 0 0 0 0 0 0 0 0 0 0 0 0 0 0 0 0 0 0 0 0
0 0 0 0 0 0 0 0 0 0 0 0 0 0 0 0 0 0 0 0 0 0 0 0 0 0 0 0 0 0 0 0 0 0 0 0 0 0 0 0 0 0 0
0 0 0 0 0 0 0 0 0 0 0 0 0 0 0 0 0 0 0 0 0 0 0 0 0 0 0 0 0 0 0 0 0 0 0 0 0 0 0 0 0 0 0
0 0 0 0 0 0 0 0 0 0 0 0 0 0 0 0 0 0 0 0 0 0 0 0 0 0 0 0 0 0 0 0 0 0 0 0 0 0 0 0 0 0 0
0 0 0 0 0 0 0 0 0 0 0 0 0 0 0 0 0 0 0 0 0 0 0 0 0 0 0 0 0 0 0 0 0 0 0 0 0 0 0 0 0 0 0
Wind_Speed
2 2 2 2 2 2 2 3 3 3 3 3 3 3 2 2 2 2 2 5 5 4 4 3 3 3 3 3 4 5 4 4 3 3 3 6 8 9 11 12 13 13 12
1 2 2 2 2 2 2 2 2 2 2 2 3 3 2 2 2 2 2 3 5 5 5 4 4 4 3 3 4 4 4 4 2 2 2 5 7 9 10 11 13 13 13
2 1 2 2 2 2 2 2 3 2 3 3 3 3 3 3 2 3 2 2 3 5 5 4 5 4 3 3 4 4 3 2 0 2 4 5 7 8 9 10 12 12 13
2 2 2 2 2 2 2 2 2 2 3 3 2 3 3 3 3 3 2 2 2 3 4 6 5 4 4 3 4 4 3 1 2 3 5 6 7 7 8 9 10 11 12
2 2 2 2 2 2 3 2 2 2 2 2 2 2 3 3 3 3 3 3 3 3 3 4 5 4 4 4 4 4 3 2 3 4 5 6 7 8 7 7 8 9 10
2 2 2 3 3 3 3 3 2 2 1 2 2 3 3 3 2 3 3 3 3 3 3 4 3 3 5 5 4 4 4 3 3 4 5 6 6 7 7 7 7 8 9
2 2 2 3 3 2 2 2 2 3 3 2 2 3 3 3 3 3 3 3 3 4 3 4 3 2 2 4 4 4 4 2 2 3 5 6 6 6 6 6 7 8 9
2 2 2 2 2 2 3 3 2 2 2 3 2 2 3 5 4 4 3 3 4 3 4 4 3 3 2 2 3 4 3 2 2 2 3 4 5 5 6 6 7 8 9
2 2 2 2 2 2 2 2 2 2 1 2 2 2 2 1 3 3 3 3 4 3 3 3 3 3 3 2 2 3 4 2 1 2 3 3 4 4 5 7 7 8 9
2 2 2 2 2 2 2 2 2 1 1 1 2 2 1 2 1 2 3 3 4 3 4 3 3 3 3 2 2 3 3 2 1 1 2 2 3 4 6 7 7 8 8
2 2 2 2 2 1 2 2 2 2 1 1 1 1 1 1 1 1 2 4 4 3 3 3 2 2 3 2 2 2 2 1 1 1 2 2 2 3 6 7 7 8 8
2 2 1 1 1 1 1 1 1 2 1 1 1 1 1 1 0 1 1 2 3 3 3 2 2 2 2 2 3 3 2 1 1 1 1 2 2 3 4 6 7 7 7
1 2 1 1 1 1 1 1 1 2 1 1 1 0 0 1 1 1 1 1 2 3 3 3 2 2 2 2 3 4 2 1 1 1 1 1 2 2 3 5 6 7 8
2 2 1 1 1 1 1 1 1 1 1 1 1 1 0 0 0 1 1 1 1 2 2 3 3 2 2 2 3 4 2 2 1 2 1 2 3 3 3 4 6 6 6
1 1 0 1 1 1 1 1 1 2 2 2 2 1 1 1 0 0 1 2 1 1 2 3 3 3 3 2 3 2 2 2 2 2 2 3 3 3 3 3 4 5 5
1 1 1 1 1 2 1 1 1 1 2 2 1 1 2 1 1 0 0 1 1 2 2 2 2 3 4 3 3 2 2 3 2 2 3 4 4 4 5 4 4 5 5
1 1 1 1 2 2 2 1 1 2 2 2 2 2 2 1 1 1 0 0 1 1 2 3 2 2 3 3 4 3 2 1 2 3 3 4 4 4 5 5 5 5 6
1 1 2 2 2 2 2 2 2 2 2 2 2 2 2 2 2 1 1 1 1 1 2 3 2 2 2 3 3 3 3 2 2 3 4 4 4 4 5 5 5 6 6
2 2 2 2 2 2 2 2 1 2 2 1 2 2 2 2 2 2 1 1 1 1 1 1 2 2 2 2 3 3 2 2 2 2 3 4 4 5 5 6 6 7 7
3 3 2 2 2 2 2 2 2 2 2 2 2 1 2 1 1 2 1 1 1 1 1 1 2 2 2 2 2 2 3 2 3 2 2 2 3 4 6 6 7 7 7
3 2 3 3 3 2 2 2 2 2 2 3 3 3 2 3 3 2 1 1 1 1 1 1 2 2 2 2 2 2 2 3 3 2 1 2 2 2 3 5 7 8 8
3 3 3 3 3 3 5 4 3 2 2 2 3 3 3 3 5 6 5 4 2 1 1 1 2 2 3 3 2 2 2 2 3 2 1 3 2 3 3 4 6 8 9
3 3 3 3 2 3 5 5 4 2 1 1 2 2 3 4 4 3 5 6 4 4 3 2 3 4 4 3 2 3 3 3 4 3 1 4 3 4 4 4 7 9 10
2 2 2 2 2 4 6 5 4 2 1 2 2 2 2 4 4 3 3 4 4 4 4 3 4 5 5 4 4 4 4 4 4 3 2 4 3 4 4 4 7 9 10
1 1 1 1 2 4 6 5 4 1 2 3 3 3 3 3 7 6 2 4 5 5 5 6 7 8 9 8 5 2 2 2 4 4 3 3 3 3 3 4 5 8 10
0 0 1 1 1 3 5 6 4 1 2 3 3 4 5 6 8 7 3 3 5 6 5 6 6 6 6 6 6 4 4 4 4 4 3 3 3 2 3 3 3 4 5
Wind_Direction
48 31 17 12 8 7 13 10 14 17 15 12 19 29 17 5 357 351 334 341 346 344 334 329 323 320 320 316 311 310 303 288 267 256 232 195 185 177 167 163 162 160 159
71 47 23 12 7 1 4 17 20 20 13 15 17 19 14 5 355 353 349 347 348 347 344 338 326 321 319 324 322 315 316 308 263 189 146 160 159 159 159 161 163 162 163
71 64 39 18 359 353 7 22 23 23 23 22 14 9 15 7 1 0 358 354 346 347 354 353 335 331 329 324 325 321 322 329 236 146 137 132 132 142 153 158 164 163 165
68 63 47 14 355 6 18 27 25 26 21 17 11 5 6 3 3 3 4 1 358 352 352 359 353 353 352 348 342 340 341 3 109 130 131 130 134 134 142 148 156 162 166
53 63 48 13 11 26 23 21 35 33 22 10 11 18 8 10 1 10 12 7 3 359 354 355 6 9 13 4 353 349 1 54 102 129 133 132 135 138 143 149 155 162 166
46 57 48 27 28 37 25 25 35 30 22 359 21 26 9 4 7 17 10 7 3 4 5 8 6 9 20 13 3 6 36 66 75 120 132 133 134 138 143 150 156 160 163
41 53 46 32 31 39 27 23 35 32 15 1 34 12 357 6 18 16 7 13 12 5 5 12 7 8 6 10 9 14 26 56 79 116 130 135 136 143 151 155 154 154 154
25 48 53 36 27 33 28 26 36 36 14 21 59 53 6 353 354 3 6 16 10 5 9 7 4 7 5 6 357 9 17 45 86 117 134 138 143 151 159 156 157 156 153
28 43 50 46 34 42 27 18 34 63 33 11 44 100 96 335 322 337 358 10 5 6 360 354 0 358 360 6 359 360 11 36 121 127 127 138 146 157 163 160 161 159 160
22 29 43 47 46 42 28 5 41 55 76 22 9 41 113 162 92 337 336 349 358 3 355 354 355 353 359 1 354 354 4 17 68 148 137 129 128 136 151 154 154 157 161
7 22 35 40 39 31 26 25 29 39 65 83 32 22 51 56 83 120 324 332 343 340 344 339 344 350 351 355 345 337 338 348 345 161 163 156 150 141 144 150 157 164 171
342 359 20 28 22 15 13 18 29 37 37 55 52 73 99 92 98 132 240 310 324 316 332 340 349 342 339 345 342 348 344 321 283 254 182 173 187 183 174 167 170 175 179
322 320 348 356 354 346 360 24 36 25 21 33 22 18 151 191 173 163 156 293 325 317 333 339 336 337 341 346 338 344 339 330 299 270 226 202 206 213 207 195 192 188 188
261 281 303 323 342 355 15 35 37 13 20 15 8 5 352 296 177 171 167 147 356 337 339 321 322 335 335 333 329 337 331 322 284 259 243 227 221 217 215 214 211 202 197
272 310 344 1 359 13 22 41 36 10 17 14 5 8 3 331 343 215 180 169 154 330 313 309 317 324 328 326 329 329 315 305 287 256 241 230 228 229 227 223 220 210 205
8 36 33 28 17 20 26 44 13 3 24 360 356 17 8 342 347 354 179 180 169 176 256 288 286 301 316 324 329 326 306 303 289 261 242 233 229 224 224 219 208 204 202
46 58 53 52 38 25 24 41 15 15 23 2 3 15 351 343 356 352 4 159 184 174 232 284 282 300 318 323 327 325 311 299 286 273 255 238 230 222 217 215 207 199 199
46 51 59 59 44 36 29 33 16 20 30 6 354 11 350 1 4 350 357 332 252 212 213 280 303 314 311 314 317 317 316 309 283 274 255 243 234 226 222 219 212 202 199
56 48 59 58 46 37 32 25 31 30 31 12 3 12 345 10 356 343 351 341 313 309 220 249 289 299 304 321 331 325 320 318 301 285 261 246 238 231 229 227 221 215 209
69 55 52 49 47 44 37 29 38 37 24 11 6 4 346 346 310 314 333 320 326 336 317 289 293 303 301 312 328 328 326 323 309 311 298 270 247 237 236 236 230 222 217
65 62 56 39 32 41 40 41 41 41 30 15 6 359 353 358 353 341 335 306 311 309 312 302 299 311 308 320 309 304 302 307 297 274 287 280 261 253 247 244 239 229 222
50 57 53 43 31 26 30 43 59 44 31 19 356 345 344 360 357 355 349 342 325 267 260 264 279 283 284 276 279 291 296 310 300 288 278 281 250 249 245 238 239 233 227
55 53 42 41 22 358 19 33 43 64 31 357 338 335 344 355 355 340 338 342 331 314 277 237 250 259 266 264 267 278 269 263 264 274 265 275 261 257 251 244 237 235 230
61 50 30 23 12 355 12 22 29 43 8 328 309 298 304 314 323 334 329 328 313 301 285 264 245 254 258 254 237 252 261 273 276 270 233 259 259 258 264 252 241 233 231
49 27 13 14 359 333 354 6 25 18 342 318 307 302 297 292 313 331 325 309 307 302 292 283 280 281 282 278 267 261 271 274 282 275 230 239 260 271 268 258 248 236 231
119 23 4 343 325 315 338 353 7 6 325 312 312 307 306 307 314 321 297 285 293 292 300 306 300 296 288 282 272 239 233 247 264 270 233 220 249 257 273 256 245 240 235